| time (UTC) | temp F | wind direction | speed knots | gust knots | rain 1hr in | rain 24hr in | rain mn in | humidity % | barometer mb |
| 20260510143058 | 55 | 26 | 1.7 | 5.2 | 0.01 | 0.02 | 0.02 | 67 | 1022.9 |
| 20260510141545 | 55 | 74 | 0.9 | 2.6 | 0.02 | 0.02 | 0.02 | 72 | 1022.8 |
| 20260510140044 | 54 | 16 | 0.0 | 1.7 | 0.02 | 0.02 | 0.02 | 76 | 1022.7 |
| 20260510134548 | 54 | 17 | 1.7 | 4.3 | 0.02 | 0.02 | 0.02 | 73 | 1022.6 |
| 20260510133045 | 54 | 58 | 0.0 | 2.6 | 0.01 | 0.01 | 0.01 | 73 | 1022.3 |
| 20260510131542 | 55 | 360 | 2.6 | 7.8 | 0.00 | 0.00 | 0.00 | 67 | 1022.2 |
| 20260510130050 | 56 | 360 | 1.7 | 7.8 | 0.00 | 0.00 | 0.00 | 65 | 1021.9 |
| 20260510124549 | 57 | 360 | 3.5 | 8.7 | 0.00 | 0.00 | 0.00 | 62 | 1021.6 |
| 20260510123049 | 57 | 360 | 5.2 | 11.3 | 0.00 | 0.00 | 0.00 | 61 | 1020.6 |
| 20260510121542 | 57 | 360 | 7.0 | 13.9 | 0.00 | 0.00 | 0.00 | 62 | 1019.6 |
| 20260510120048 | 57 | 360 | 5.2 | 12.2 | 0.00 | 0.00 | 0.00 | 63 | 1018.9 |
| 20260510114550 | 58 | 360 | 7.8 | 13.0 | 0.00 | 0.00 | 0.00 | 63 | 1018.4 |
| 20260510113059 | 57 | 360 | 5.2 | 11.3 | 0.00 | 0.00 | 0.00 | 65 | 1017.8 |
| 20260510111553 | 58 | 360 | 6.1 | 12.2 | 0.00 | 0.00 | 0.00 | 67 | 1017.6 |
| 20260510110046 | 58 | 360 | 5.2 | 10.4 | 0.00 | 0.00 | 0.00 | 66 | 1017.6 |
| 20260510104556 | 58 | 360 | 6.1 | 10.4 | 0.00 | 0.00 | 0.00 | 66 | 1017.5 |
| 20260510103050 | 59 | 360 | 4.3 | 10.4 | 0.00 | 0.00 | 0.00 | 66 | 1017.3 |
| 20260510101543 | 59 | 360 | 3.5 | 13.0 | 0.00 | 0.00 | 0.00 | 67 | 1017.0 |
| 20260510100042 | 58 | 360 | 4.3 | 10.4 | 0.00 | 0.00 | 0.00 | 67 | 1016.7 |
| 20260510094550 | 58 | 29 | 3.5 | 12.2 | 0.00 | 0.00 | 0.00 | 69 | 1016.4 |
| 20260510093103 | 60 | 33 | 4.3 | 11.3 | 0.00 | 0.00 | 0.00 | 65 | 1016.1 |
| 20260510091547 | 60 | 20 | 4.3 | 9.6 | 0.00 | 0.00 | 0.00 | 64 | 1016.2 |
| 20260510090049 | 60 | 19 | 5.2 | 10.4 | 0.00 | 0.00 | 0.00 | 64 | 1016.0 |
| 20260510084552 | 61 | 64 | 4.3 | 10.4 | 0.00 | 0.00 | 0.00 | 63 | 1016.0 |
| 20260510083052 | 61 | 38 | 4.3 | 9.6 | 0.00 | 0.00 | 0.00 | 63 | 1016.1 |
| 20260510081619 | 62 | 26 | 2.6 | 8.7 | 0.00 | 0.00 | 0.00 | 64 | 1016.0 |
| 20260510080047 | 62 | 31 | 3.5 | 7.8 | 0.00 | 0.00 | 0.00 | 63 | 1015.8 |
| 20260510074556 | 63 | 26 | 2.6 | 5.2 | 0.00 | 0.00 | 0.00 | 62 | 1015.6 |
| 20260510073054 | 63 | 33 | 2.6 | 7.0 | 0.00 | 0.00 | 0.00 | 63 | 1015.5 |
| 20260510071542 | 63 | 79 | 2.6 | 7.0 | 0.00 | 0.00 | 0.00 | 62 | 1014.9 |
| 20260510070044 | 64 | 59 | 1.7 | 8.7 | 0.00 | 0.00 | 0.00 | 61 | 1014.9 |
| 20260510064554 | 64 | 88 | 3.5 | 9.6 | 0.00 | 0.00 | 0.00 | 61 | 1014.7 |
| 20260510063046 | 64 | 77 | 2.6 | 8.7 | 0.00 | 0.00 | 0.00 | 61 | 1014.6 |
| 20260510061549 | 64 | 90 | 4.3 | 8.7 | 0.00 | 0.00 | 0.00 | 62 | 1014.4 |
| 20260510060049 | 65 | 80 | 2.6 | 8.7 | 0.00 | 0.00 | 0.00 | 62 | 1014.0 |
| 20260510054544 | 65 | 78 | 2.6 | 6.1 | 0.00 | 0.00 | 0.00 | 61 | 1013.7 |
| 20260510053105 | 65 | 58 | 2.6 | 7.0 | 0.00 | 0.00 | 0.00 | 61 | 1013.8 |
| 20260510051550 | 66 | 65 | 3.5 | 7.0 | 0.00 | 0.00 | 0.00 | 59 | 1013.6 |
| 20260510050059 | 67 | 84 | 3.5 | 10.4 | 0.00 | 0.00 | 0.00 | 58 | 1013.4 |
| 20260510044601 | 67 | 53 | 3.5 | 7.8 | 0.00 | 0.00 | 0.00 | 57 | 1013.5 |
| 20260510043052 | 68 | 69 | 3.5 | 7.8 | 0.00 | 0.00 | 0.00 | 55 | 1013.3 |
| 20260510041545 | 69 | 69 | 1.7 | 6.1 | 0.00 | 0.00 | 0.00 | 53 | 1013.4 |
| 20260510040048 | 70 | 81 | 1.7 | 7.0 | 0.00 | 0.00 | 0.00 | 53 | 1013.3 |
| 20260510034546 | 71 | 38 | 1.7 | 4.3 | 0.00 | 0.00 | 0.00 | 50 | 1013.6 |
| 20260510033057 | 71 | 29 | 0.9 | 10.4 | 0.00 | 0.00 | 0.00 | 50 | 1013.1 |
| 20260510031548 | 72 | 40 | 3.5 | 11.3 | 0.00 | 0.00 | 0.00 | 49 | 1012.7 |
| 20260510030100 | 72 | 69 | 2.6 | 11.3 | 0.00 | 0.00 | 0.00 | 48 | 1012.7 |
| 20260510024546 | 72 | 119 | 0.0 | 4.3 | 0.00 | 0.00 | 0.00 | 44 | 1012.3 |
| 20260510023048 | 73 | 99 | 1.7 | 3.5 | 0.00 | 0.00 | 0.00 | 44 | 1012.2 |
| 20260510021548 | 74 | 209 | 0.9 | 3.5 | 0.00 | 0.00 | 0.00 | 41 | 1012.2 |
| 20260510020051 | 75 | 238 | 0.9 | 4.3 | 0.00 | 0.00 | 0.00 | 40 | 1012.3 |
| 20260510014553 | 75 | 277 | 0.9 | 2.6 | 0.00 | 0.00 | 0.00 | 40 | 1012.0 |
| 20260510013044 | 76 | 205 | 0.9 | 5.2 | 0.00 | 0.00 | 0.00 | 38 | 1011.5 |
| 20260510011548 | 77 | 207 | 2.6 | 7.0 | 0.00 | 0.00 | 0.00 | 36 | 1011.0 |
| 20260510010051 | 77 | 177 | 3.5 | 7.0 | 0.00 | 0.00 | 0.00 | 35 | 1009.9 |
| 20260510004548 | 78 | 187 | 2.6 | 5.2 | 0.00 | 0.00 | 0.00 | 33 | 1009.4 |
| 20260510003054 | 80 | 171 | 2.6 | 8.7 | 0.00 | 0.00 | 0.00 | 30 | 1008.8 |
| 20260510001544 | 81 | 193 | 4.3 | 8.7 | 0.00 | 0.00 | 0.00 | 30 | 1008.9 |
| 20260510000054 | 82 | 175 | 4.3 | 7.8 | 0.00 | 0.00 | 0.00 | 28 | 1008.8 |
| 20260509234556 | 83 | 190 | 5.2 | 9.6 | 0.00 | 0.00 | 0.00 | 28 | 1008.9 |
| 20260509233059 | 84 | 150 | 2.6 | 6.1 | 0.00 | 0.00 | 0.00 | 27 | 1008.9 |
| 20260509231553 | 84 | 186 | 5.2 | 8.7 | 0.00 | 0.00 | 0.00 | 25 | 1009.1 |
| 20260509230044 | 85 | 208 | 2.6 | 7.8 | 0.00 | 0.00 | 0.00 | 25 | 1009.1 |
| 20260509224548 | 85 | 239 | 3.5 | 7.0 | 0.00 | 0.00 | 0.00 | 26 | 1009.1 |
| 20260509223056 | 85 | 0 | 3.5 | 8.7 | 0.00 | 0.00 | 0.00 | 24 | 1008.9 |
| 20260509221548 | 86 | 204 | 5.2 | 8.7 | 0.00 | 0.00 | 0.00 | 25 | 1008.9 |
| 20260509220051 | 85 | 265 | 1.7 | 7.8 | 0.00 | 0.00 | 0.00 | 26 | 1008.9 |
| 20260509214550 | 84 | 108 | 0.9 | 5.2 | 0.00 | 0.00 | 0.00 | 26 | 1008.9 |
| 20260509213049 | 84 | 254 | 2.6 | 6.1 | 0.00 | 0.00 | 0.00 | 24 | 1009.1 |
| 20260509211546 | 85 | 259 | 2.6 | 7.8 | 0.00 | 0.00 | 0.00 | 25 | 1009.2 |
| 20260509210050 | 85 | 0 | 1.7 | 7.8 | 0.00 | 0.00 | 0.00 | 25 | 1009.3 |
| 20260509204549 | 85 | 280 | 0.9 | 9.6 | 0.00 | 0.00 | 0.00 | 24 | 1009.6 |
| 20260509203049 | 85 | 173 | 6.1 | 13.9 | 0.00 | 0.00 | 0.00 | 25 | 1009.8 |
| 20260509201600 | 84 | 207 | 4.3 | 11.3 | 0.00 | 0.00 | 0.00 | 25 | 1010.1 |
| 20260509200103 | 84 | 215 | 4.3 | 9.6 | 0.00 | 0.00 | 0.00 | 23 | 1010.2 |
| 20260509194549 | 85 | 186 | 6.1 | 8.7 | 0.00 | 0.00 | 0.00 | 28 | 1010.3 |
| 20260509193111 | 85 | 178 | 4.3 | 10.4 | 0.00 | 0.00 | 0.00 | 27 | 1010.3 |
| 20260509191550 | 84 | 336 | 0.9 | 9.6 | 0.00 | 0.00 | 0.00 | 26 | 1010.5 |
| 20260509190050 | 83 | 298 | 3.5 | 8.7 | 0.00 | 0.00 | 0.00 | 26 | 1010.7 |
| 20260509184600 | 83 | 252 | 6.1 | 10.4 | 0.00 | 0.00 | 0.00 | 26 | 1010.7 |
| 20260509183043 | 83 | 279 | 2.6 | 10.4 | 0.00 | 0.00 | 0.00 | 26 | 1011.0 |
| 20260509181552 | 83 | 360 | 1.7 | 8.7 | 0.00 | 0.00 | 0.00 | 31 | 1011.2 |
| 20260509180042 | 82 | 286 | 4.3 | 8.7 | 0.00 | 0.00 | 0.00 | 32 | 1011.4 |
| 20260509174552 | 82 | 316 | 3.5 | 10.4 | 0.00 | 0.00 | 0.00 | 31 | 1011.5 |
| 20260509173101 | 81 | 240 | 5.2 | 11.3 | 0.00 | 0.00 | 0.00 | 33 | 1011.9 |
| 20260509171555 | 80 | 288 | 4.3 | 10.4 | 0.00 | 0.00 | 0.00 | 37 | 1012.0 |
| 20260509170047 | 79 | 246 | 3.5 | 9.6 | 0.00 | 0.00 | 0.00 | 39 | 1012.0 |
| 20260509164543 | 77 | 240 | 3.5 | 8.7 | 0.00 | 0.00 | 0.00 | 38 | 1012.1 |
| 20260509163045 | 78 | 236 | 5.2 | 11.3 | 0.00 | 0.00 | 0.00 | 37 | 1012.1 |
| 20260509161550 | 78 | 246 | 5.2 | 10.4 | 0.00 | 0.00 | 0.00 | 36 | 1012.1 |
| 20260509160044 | 78 | 227 | 3.5 | 10.4 | 0.00 | 0.00 | 0.00 | 39 | 1011.9 |
| 20260509154546 | 76 | 230 | 7.0 | 13.0 | 0.00 | 0.00 | 0.00 | 37 | 1012.1 |
| 20260509153044 | 75 | 252 | 6.1 | 11.3 | 0.00 | 0.00 | 0.00 | 40 | 1012.1 |
| 20260509151549 | 74 | 251 | 3.5 | 7.8 | 0.00 | 0.00 | 0.00 | 47 | 1012.2 |
| 20260509144644 | 71 | 229 | 4.3 | 8.7 | 0.00 | 0.00 | 0.00 | 51 | 1012.1 |